Tracking 28790 objects as of 18-Apr-2024
HD Live streaming from Space Station
objects crossing your sky now

MONOLITH

Track MONOLITH now!
10-day predictions


NORAD ID: 49052
Int'l Code: 2021-068A
Perigee: 585.7 km
Apogee: 593.4 km
Inclination: 37.0 °
Period: 96.3 minutes
Semi major axis: 6960 km
RCS: Unknown
Launch date: July 29, 2021
Source: United States (US)
Launch site: Rocket Lab Launch Complex (RLLC)
Your satellite tracking list
Your tracking list is empty




NASA's NSSDC Master Catalog

Two Line Element Set (TLE):
1 49052U 21068A   24108.72811414  .00011175  00000-0  10089-2 0  9995
2 49052  37.0202 278.9065 0005590 267.2192  92.7909 14.94989421148315
Source of the keplerian elements: AFSPC